Back to catalog

COSMOS 839 DEB

AliveUNKNOWN
NORAD 10616·DEBRIS·🇷🇺 Russia

Launched Jul 8, 1976 from Plesetsk Cosmodrome

Loading…

Next Passes (next 24 hours)

TLE

FreshSource: Space-Track

Epoch: Sep 13, 2026, 06:34 UTC

1 10616U 76067AQ  26256.27375051 -.00000088  00000-0 -80082-4 0  9991
2 10616  65.5984 317.9795 0715536  99.2576 269.0002 12.47877180281082

Track COSMOS 839 DEB in real time with AllMySat

Download on the App Store